When you browse on this site, cookies collect data to enhance your experience and personalize the content and advertising you see.
Visit our Privacy Policy to learn more. By continuing to use the site, you agree to this use of cookies and data.
  • In Österreich
  • Länderverzeichnis
  • Für 7 Tage
  • Wassertemperatur
  • Satellitenkarten
  • Wetterkarte
  • News
  • Widgets
  • user-avatar
    Anmelden

    Stündliche Wetter Stanton

    Heute, 25 April, Donnerstag

    Zeit Temperatur Niederschläge Wind Luftdruck Luftfeuchtigkeit
    00:00 +19°C° 0 mm 1 m/S 759 mmHg 72%
    01:00 +19°C° 0 mm 1 m/S 759 mmHg 71%
    02:00 +19°C° 0 mm 1 m/S 759 mmHg 72%
    03:00 +18°C° 0 mm 1 m/S 759 mmHg 73%
    04:00 +18°C° 0 mm 1 m/S 759 mmHg 76%
    05:00 +18°C° 0 mm 1 m/S 759 mmHg 74%
    06:00 +18°C° 0 mm 1 m/S 759 mmHg 73%
    07:00 +19°C° 0 mm 1 m/S 759 mmHg 72%
    08:00 +19°C° 0 mm 2 m/S 759 mmHg 65%
    09:00 +21°C° 0 mm 2 m/S 759 mmHg 59%
    10:00 +23°C° 0 mm 2 m/S 759 mmHg 52%
    11:00 +24°C° 0 mm 3 m/S 759 mmHg 49%
    12:00 +25°C° 0 mm 3 m/S 759 mmHg 45%
    13:00 +26°C° 0 mm 3 m/S 758 mmHg 42%
    14:00 +26°C° 0 mm 3 m/S 758 mmHg 43%
    15:00 +26°C° 0 mm 3 m/S 758 mmHg 43%
    16:00 +26°C° 0 mm 3 m/S 758 mmHg 44%
    17:00 +25°C° 0 mm 3 m/S 758 mmHg 48%
    18:00 +24°C° 0 mm 3 m/S 758 mmHg 53%
    19:00 +21°C° 0 mm 2 m/S 758 mmHg 57%
    20:00 +21°C° 0 mm 2 m/S 759 mmHg 60%
    21:00 +21°C° 0 mm 2 m/S 759 mmHg 62%
    22:00 +21°C° 0 mm 1 m/S 760 mmHg 65%
    23:00 +21°C° 0 mm 1 m/S 759 mmHg 67%

    Morgen, 26 April, Freitag

    Zeit Temperatur Niederschläge Wind Luftdruck Luftfeuchtigkeit
    00:00 +20°C° 0 mm 1 m/S 759 mmHg 69%
    01:00 +20°C° 0 mm 1 m/S 759 mmHg 72%
    02:00 +20°C° 0 mm 1 m/S 759 mmHg 73%
    03:00 +20°C° 0 mm 1 m/S 759 mmHg 74%
    04:00 +19°C° 0 mm 1 m/S 759 mmHg 75%
    05:00 +20°C° 0 mm 1 m/S 759 mmHg 73%
    06:00 +20°C° 0 mm 1 m/S 759 mmHg 70%
    07:00 +20°C° 0 mm 1 m/S 759 mmHg 68%
    08:00 +21°C° 0 mm 2 m/S 759 mmHg 61%
    09:00 +23°C° 0 mm 2 m/S 759 mmHg 55%
    10:00 +24°C° 0 mm 3 m/S 759 mmHg 49%
    11:00 +25°C° 0 mm 3 m/S 759 mmHg 46%
    12:00 +26°C° 0 mm 3 m/S 759 mmHg 44%
    13:00 +27°C° 0 mm 4 m/S 758 mmHg 41%
    14:00 +26°C° 0 mm 4 m/S 758 mmHg 42%
    15:00 +26°C° 0 mm 4 m/S 758 mmHg 44%
    16:00 +26°C° 0 mm 4 m/S 758 mmHg 45%
    17:00 +25°C° 0 mm 3 m/S 758 mmHg 49%
    18:00 +24°C° 0 mm 3 m/S 758 mmHg 54%
    19:00 +23°C° 0 mm 2 m/S 758 mmHg 58%
    20:00 +21°C° 0 mm 2 m/S 758 mmHg 60%
    21:00 +21°C° 0 mm 2 m/S 759 mmHg 63%
    22:00 +20°C° 0 mm 2 m/S 759 mmHg 66%
    23:00 +20°C° 0 mm 2 m/S 759 mmHg 68%

    übermorgen, 27 April, Samstag

    Zeit Temperatur Niederschläge Wind Luftdruck Luftfeuchtigkeit
    00:00 +21°C° 0 mm 1 m/S 758 mmHg 70%
    01:00 +20°C° 0 mm 1 m/S 758 mmHg 72%
    02:00 +20°C° 0 mm 1 m/S 758 mmHg 73%
    03:00 +20°C° 0 mm 1 m/S 758 mmHg 74%
    04:00 +20°C° 0 mm 1 m/S 758 mmHg 76%
    05:00 +19°C° 0 mm 2 m/S 758 mmHg 74%
    06:00 +19°C° 0 mm 2 m/S 758 mmHg 73%
    07:00 +19°C° 0 mm 2 m/S 758 mmHg 71%
    08:00 +20°C° 0 mm 2 m/S 758 mmHg 66%
    09:00 +23°C° 0 mm 2 m/S 758 mmHg 61%
    10:00 +24°C° 0 mm 3 m/S 758 mmHg 55%
    11:00 +24°C° 0 mm 3 m/S 758 mmHg 52%
    12:00 +25°C° 0 mm 3 m/S 758 mmHg 49%
    13:00 +26°C° 0 mm 4 m/S 757 mmHg 46%
    14:00 +26°C° 0 mm 4 m/S 757 mmHg 45%
    15:00 +25°C° 0 mm 4 m/S 756 mmHg 45%
    16:00 +25°C° 0 mm 4 m/S 756 mmHg 45%
    17:00 +24°C° 0 mm 3 m/S 756 mmHg 47%
    18:00 +22°C° 0 mm 3 m/S 756 mmHg 49%
    19:00 +21°C° 0 mm 2 m/S 756 mmHg 52%
    20:00 +21°C° 0 mm 2 m/S 757 mmHg 54%
    21:00 +20°C° 0 mm 2 m/S 757 mmHg 56%
    22:00 +21°C° 0 mm 1 m/S 757 mmHg 58%
    23:00 +21°C° 0 mm 1 m/S 757 mmHg 60%

    28 April, Sonntag

    Zeit Temperatur Niederschläge Wind Luftdruck Luftfeuchtigkeit
    00:00 +20°C° 0 mm 1 m/S 757 mmHg 62%
    01:00 +20°C° 0 mm 1 m/S 757 mmHg 64%
    02:00 +20°C° 0 mm 1 m/S 757 mmHg 66%
    03:00 +19°C° 0 mm 1 m/S 757 mmHg 67%
    04:00 +19°C° 0 mm 1 m/S 756 mmHg 69%
    05:00 +20°C° 0 mm 1 m/S 757 mmHg 66%
    06:00 +19°C° 0 mm 2 m/S 757 mmHg 64%
    07:00 +19°C° 0 mm 2 m/S 757 mmHg 61%
    08:00 +20°C° 0 mm 2 m/S 757 mmHg 57%
    09:00 +21°C° 0 mm 2 m/S 757 mmHg 52%
    10:00 +23°C° 0 mm 2 m/S 757 mmHg 48%
    11:00 +24°C° 0 mm 3 m/S 757 mmHg 44%
    12:00 +25°C° 0 mm 3 m/S 756 mmHg 41%
    13:00 +26°C° 0 mm 4 m/S 756 mmHg 37%
    14:00 +25°C° 0 mm 4 m/S 755 mmHg 41%
    15:00 +25°C° 0 mm 4 m/S 755 mmHg 44%
    16:00 +23°C° 0 mm 4 m/S 754 mmHg 48%
    17:00 +22°C° 0 mm 3 m/S 755 mmHg 51%
    18:00 +21°C° 0 mm 3 m/S 755 mmHg 53%
    19:00 +20°C° 0 mm 2 m/S 755 mmHg 56%
    20:00 +20°C° 0 mm 2 m/S 755 mmHg 59%
    21:00 +19°C° 0 mm 2 m/S 756 mmHg 61%
    22:00 +19°C° 0 mm 2 m/S 756 mmHg 64%
    23:00 +19°C° 0 mm 2 m/S 756 mmHg 67%

    29 April, Montag

    Zeit Temperatur Niederschläge Wind Luftdruck Luftfeuchtigkeit
    00:00 +18°C° 0 mm 2 m/S 756 mmHg 70%
    01:00 +19°C° 0 mm 1 m/S 756 mmHg 73%
    02:00 +17°C° 0 mm 2 m/S 756 mmHg 74%
    03:00 +17°C° 0 mm 2 m/S 756 mmHg 75%
    04:00 +17°C° 0 mm 2 m/S 756 mmHg 77%
    05:00 +17°C° 0 mm 2 m/S 756 mmHg 76%
    06:00 +17°C° 0 mm 2 m/S 756 mmHg 75%
    07:00 +17°C° 0 mm 2 m/S 757 mmHg 74%
    08:00 +18°C° 0 mm 2 m/S 757 mmHg 69%
    09:00 +19°C° 0 mm 3 m/S 757 mmHg 64%
    10:00 +20°C° 0 mm 3 m/S 757 mmHg 58%
    11:00 +20°C° 0 mm 4 m/S 757 mmHg 56%
    12:00 +21°C° 0 mm 4 m/S 757 mmHg 55%
    13:00 +21°C° 0 mm 5 m/S 757 mmHg 53%
    14:00 +21°C° 0 mm 4 m/S 757 mmHg 54%
    15:00 +21°C° 0 mm 4 m/S 756 mmHg 55%
    16:00 +20°C° 0 mm 4 m/S 756 mmHg 56%
    17:00 +20°C° 0 mm 4 m/S 757 mmHg 60%
    18:00 +19°C° 0 mm 4 m/S 757 mmHg 63%
    19:00 +18°C° 0 mm 3 m/S 758 mmHg 66%
    20:00 +18°C° 0 mm 3 m/S 758 mmHg 68%
    21:00 +17°C° 0 mm 3 m/S 758 mmHg 70%
    22:00 +17°C° 0 mm 2 m/S 759 mmHg 72%
    23:00 +17°C° 0 mm 2 m/S 758 mmHg 72%

    30 April, Dienstag

    Zeit Temperatur Niederschläge Wind Luftdruck Luftfeuchtigkeit
    00:00 +17°C° 0 mm 2 m/S 758 mmHg 72%
    01:00 +16°C° 0 mm 2 m/S 758 mmHg 72%
    02:00 +16°C° 0 mm 2 m/S 758 mmHg 71%
    03:00 +16°C° 0 mm 2 m/S 758 mmHg 70%
    04:00 +16°C° 0 mm 2 m/S 758 mmHg 69%
    05:00 +16°C° 0 mm 2 m/S 758 mmHg 68%
    06:00 +16°C° 0 mm 2 m/S 758 mmHg 67%
    07:00 +17°C° 0 mm 2 m/S 759 mmHg 65%
    08:00 +17°C° 0 mm 3 m/S 759 mmHg 64%
    09:00 +17°C° 0 mm 3 m/S 759 mmHg 62%
    10:00 +17°C° 0 mm 3 m/S 759 mmHg 60%
    11:00 +18°C° 0 mm 3 m/S 759 mmHg 59%
    12:00 +18°C° 0 mm 3 m/S 758 mmHg 57%
    13:00 +18°C° 0 mm 3 m/S 758 mmHg 56%
    14:00 +19°C° 0 mm 3 m/S 758 mmHg 54%
    15:00 +19°C° 0 mm 3 m/S 758 mmHg 53%
    16:00 +19°C° 0 mm 4 m/S 757 mmHg 51%
    17:00 +19°C° 0 mm 3 m/S 758 mmHg 54%
    18:00 +18°C° 0 mm 3 m/S 758 mmHg 58%
    19:00 +17°C° 0 mm 3 m/S 758 mmHg 61%
    20:00 +17°C° 0 mm 3 m/S 758 mmHg 63%
    21:00 +17°C° 0 mm 2 m/S 759 mmHg 64%
    22:00 +16°C° 0 mm 2 m/S 759 mmHg 66%
    23:00 +16°C° 0 mm 2 m/S 759 mmHg 67%
    Mehr zeigen